Location: Armstrong Village
(14.3346°N, 120.9854°E)
Time: 13:14:22
(UTC+00:00)

Cosmos 1821 Rocket - Pass Details

Date: 19 April 2026
Orbit: 945 x 1003 km, 82.9° (Epoch: 12 May)

Event Time Altitude Azimuth Distance (km) Brightness Sun altitude
Rises 11:12:22 0° 163° (SSE) 3,626 6.7 -15.4°
Reaches altitude 10° 11:15:03 10° 154° (SSE) 2,689 5.9 -16.0°
Maximum altitude 11:20:34 35° 91° (E) 1,514 4.5 -17.3°
Drops below altitude 10° 11:26:08 10° 27° (NNE) 2,727 6.2 -18.6°
Sets 11:28:52 0° 19° (NNE) 3,685 7.0 -19.2°
